Weather in Shangala

Russia / Stavropol Krai     45°31′20″N   42°40′27″E
temp.,
°C
wind,
m/s
gust,
m/s
humid.,
%
clouds,
%
prec.,
mm/h
press.,
hPa
HPBL,
m
15 may, sat
sat1500:00+16se34665 0.0 101142
03:00+16se336665 0.0 101134
06:00+17s227719 0.0 101250
09:00+23wnw45768 0.0 1013582
12:00+27nw346241 0.0 10131010
15:00+28nnw33545 0.0 10121230
18:00+26n35660 0.0 1012147
21:00+20nw3383100 0.0 101238
16 may, sun
sun1600:00+18e2277100 0.0 101117
03:00+17ese4750100 0.0 1011114
06:00+15ese4860100 0.0 1011155
09:00+21se565211 0.0 1010402
12:00+26ese68429 0.0 1009954
15:00+29ese6103643 0.0 10071540
18:00+24ese7154140 0.0 1006385
21:00+19e6154920 0.0 1006356
17 may, mon
mon1700:00+17ese51349100 0.0 1006345
03:00+16ese5135194 0.0 1005303
06:00+15ese4126466 0.0 1006295
09:00+22se56500 0.0 1006507
12:00+27se344565 0.0 1007938
15:00+29ese13405 0.0 10061558
18:00+22wnw91475100 0.0 1008451
21:00+18wnw51078100 0.1 1010274
18 may, tue
tue1800:00+17w51095100 2.9 1010384
03:00+16w7139597 4.5 1010461
06:00+16w81395100 0.1 1011547
09:00+17wnw7108186 0.1 1013586
12:00+20wnw576815 0.0 1013945
15:00+22wnw6759100 0.0 10131276
18:00+21wnw46690 0.0 1013885
21:00+16wsw338197 0.0 101540
19 may, wed
wed1900:00+15w498885 0.0 1015182
03:00+15w37875 0.0 1016164
06:00+15wsw35860 0.0 1017159
09:00+21wsw23595 0.0 1017717
12:00+24sw225085 0.0 10161471
15:00+25s1247100 0.0 10151544
18:00+25ene235686 0.0 101585
21:00+19ese4667100 0.0 101585